GFSFLT2_500_rhum_024.txt.gz
RH
6 4 3 4 4 5 7 9 11 12 11 11 11 11 11 12 12 12 12 12 12 12 12 12 11 10 8 7 6 4 4 3
5 6 7 9 9 11 13 11 11 13 13 14 14 15 15 16 16 16 15 15 15 14 15 15 16 16 16 15 15 14 10 7
8 9 10 10 11 13 13 14 15 16 17 18 20 23 27 30 33 35 38 40 43 38 29 22 18 17 18 18 17 16 16 13
12 12 12 12 13 14 15 16 17 18 20 22 28 34 37 39 41 43 46 48 52 54 57 57 52 41 30 26 24 22 20 19
10 12 12 12 14 15 16 16 18 21 24 25 29 33 35 36 40 44 46 49 51 52 56 56 55 54 55 56 49 33 28 26
10 11 11 15 16 18 20 24 26 28 29 31 34 40 43 43 43 44 47 48 50 51 51 51 50 49 50 49 49 52 51 44
9 11 16 20 22 24 25 28 32 37 40 42 42 41 41 46 49 50 48 48 50 51 51 50 49 46 44 44 45 47 49 49
15 19 23 28 31 32 32 35 42 44 44 42 42 43 45 46 49 51 51 50 50 50 52 53 52 48 45 44 44 44 45 47
26 27 29 32 37 42 48 50 53 53 47 42 40 42 47 52 53 52 50 50 52 50 50 50 50 50 50 51 50 49 46 45
41 43 43 45 48 55 59 56 48 41 35 35 39 45 51 56 56 53 50 48 46 44 42 42 43 43 43 43 44 44 45 45
35 31 32 30 34 40 41 40 38 44 49 50 53 54 51 51 47 43 35 34 34 33 33 33 34 39 38 38 40 41 40 43
29 30 34 39 46 50 48 49 52 54 55 57 56 50 44 36 30 28 25 26 29 27 28 31 40 44 42 41 44 40 39 41
37 42 47 54 55 52 50 54 60 56 57 54 46 39 37 31 28 26 26 23 29 37 38 34 38 46 41 46 41 38 44 43
46 50 52 57 59 58 62 66 63 62 50 41 34 32 32 34 34 33 33 32 38 55 60 52 46 53 40 44 32 35 34 44
50 57 59 65 67 60 55 52 47 33 32 33 35 32 40 46 51 58 61 57 56 56 58 59 51 46 44 44 34 23 30 23
60 60 59 56 53 48 42 34 30 33 35 37 41 40 45 46 47 55 61 74 82 67 50 52 62 52 54 40 27 23 12 13
51 50 47 39 31 31 32 37 42 38 42 44 62 63 59 62 65 58 52 51 49 50 49 51 49 35 31 20 18 6 7 6
46 37 29 30 33 37 37 43 49 48 46 49 54 60 62 60 58 58 56 57 58 55 43 18 10 10 9 9 8 10 7 6
38 35 36 36 38 43 48 48 49 54 59 61 58 53 48 49 52 51 45 29 16 8 7 8 10 10 10 10 10 9 9 8
42 43 44 46 50 55 62 69 66 60 53 49 42 34 28 22 19 18 16 12 8 9 11 11 11 10 8 8 9 12 13 15

GFSFLT2_500_rhum_030.txt.gz
RH
5 6 6 7 7 8 9 10 10 12 13 14 16 18 20 23 26 29 31 32 32 32 33 34 32 27 18 13 13 14 14 13
6 6 7 8 9 10 11 12 12 12 13 14 15 18 20 24 28 32 33 33 33 37 42 43 43 44 44 43 35 26 20 17
7 8 9 9 10 10 10 10 10 11 12 14 17 20 26 34 37 38 41 41 40 40 41 42 46 48 48 47 48 46 45 42
7 7 7 8 8 8 10 10 14 18 22 26 30 32 38 36 42 40 40 36 35 43 43 44 44 44 44 46 45 45 48 46
7 7 7 9 12 16 19 20 23 28 33 36 38 36 38 40 41 40 39 39 37 41 45 47 45 43 44 41 45 46 44 41
8 11 15 20 24 24 23 26 30 35 41 46 41 41 39 37 34 30 28 28 32 33 36 41 44 45 43 42 40 40 42 44
15 18 24 27 27 26 29 33 39 43 42 41 44 45 46 43 42 45 46 47 47 47 44 40 39 37 39 39 38 38 39 40
16 23 29 30 33 36 38 46 44 49 43 43 48 54 56 52 50 50 47 45 44 40 32 27 24 26 27 26 29 30 26 29
25 29 31 31 34 43 45 47 48 46 44 48 52 52 49 49 48 48 45 39 32 27 25 24 24 24 24 24 23 24 26 23
28 24 23 34 36 42 44 38 45 47 51 50 45 50 50 50 44 39 31 24 24 25 27 27 27 26 24 24 23 24 26 26
30 24 24 34 45 50 51 55 57 50 47 43 44 50 46 44 32 30 26 24 26 29 30 32 32 33 33 32 30 28 27 24
32 39 37 60 65 53 65 59 55 50 52 49 54 50 36 30 29 27 27 27 31 36 35 34 34 35 32 29 32 30 26 24
48 48 64 60 59 65 60 58 51 52 56 47 46 30 33 33 32 34 35 35 39 40 38 37 37 37 30 28 25 26 28 32
57 65 68 71 67 64 63 58 61 63 58 38 37 38 38 38 40 40 41 42 42 41 36 30 27 29 30 30 25 23 28 28
66 58 63 75 62 50 58 64 58 47 46 46 44 42 41 44 44 42 36 36 37 36 34 32 31 31 36 36 32 28 28 29
53 49 50 56 64 64 58 49 50 52 49 45 45 51 52 47 43 42 42 45 41 40 39 40 41 38 38 37 33 29 30 30
50 56 56 52 56 52 51 50 48 49 50 46 43 39 39 42 48 50 50 56 65 58 50 52 64 64 56 43 37 35 30 29
60 59 56 51 48 49 47 46 44 42 41 40 41 45 48 51 53 52 48 50 54 68 89 79 59 50 41 29 18 12 10 24
59 59 55 51 50 46 41 42 43 44 46 45 47 51 54 53 53 54 58 65 68 61 55 50 36 16 8 6 7 8 8 11
60 57 59 56 51 45 45 46 50 51 47 48 55 63 63 62 70 72 64 58 60 49 26 8 6 5 6 7 9 12 13 13

GFSFLT2_500_rhum_033.txt.gz
RH
5 6 6 7 8 10 11 11 12 12 12 13 14 14 17 20 23 24 27 29 30 30 32 35 37 38 38 40 38 27 20 18
6 7 9 10 10 9 9 9 9 10 11 13 15 17 19 22 25 31 37 38 38 36 33 31 34 34 34 38 39 41 42 37
8 8 7 7 7 8 9 11 13 16 20 22 25 29 33 36 39 41 39 37 35 35 33 36 37 39 41 40 37 35 37 35
7 7 7 7 9 14 19 22 24 23 21 23 26 32 33 30 34 37 40 41 40 38 37 38 40 42 42 45 46 42 41 35
6 7 9 13 18 22 20 22 24 25 29 24 24 27 33 40 44 40 36 36 40 43 44 42 42 43 41 43 47 47 43 40
8 12 14 15 18 18 17 22 15 16 22 29 31 39 42 46 47 44 41 40 37 39 41 41 41 40 35 31 30 32 39 38
13 13 16 20 21 20 20 24 18 18 27 34 40 46 49 49 46 42 39 39 39 39 38 37 28 18 17 19 22 20 18 18
16 20 22 21 21 28 32 34 31 29 37 41 44 45 51 48 45 42 41 41 41 38 34 25 19 19 21 21 21 22 22 20
21 26 27 18 19 27 22 41 48 46 41 39 42 45 44 46 47 45 39 28 23 22 21 18 18 20 22 25 24 23 25 24
16 12 23 93 89 79 81 76 68 61 48 40 45 44 52 50 45 33 25 24 23 24 24 24 23 22 23 24 24 24 22 23
17 23 21 35 68 70 60 65 69 53 40 39 42 44 48 41 31 30 32 31 32 33 32 30 29 29 28 26 25 22 20 18
50 32 23 36 40 47 53 45 48 47 45 50 48 45 38 34 36 36 37 37 38 39 36 36 34 30 26 24 24 23 23 21
58 41 34 39 39 42 59 52 53 53 53 50 42 40 41 43 43 40 39 36 33 31 29 28 28 30 29 28 27 26 26 26
42 56 63 49 49 55 55 61 64 64 60 48 49 47 42 39 34 32 31 32 33 34 35 33 32 33 32 30 26 28 31 31
58 68 60 47 50 58 64 63 63 59 58 52 45 41 38 36 37 37 37 36 36 34 34 38 41 43 45 42 36 34 31 37
56 46 47 57 63 63 60 58 57 56 53 50 46 45 44 45 46 46 44 43 42 45 46 45 46 47 50 54 55 56 43 32
45 48 48 52 62 64 60 58 61 64 55 46 45 50 53 52 53 54 54 55 57 56 56 55 55 52 51 55 56 62 62 51
55 53 54 57 58 58 62 62 54 46 45 44 47 50 54 58 60 58 58 59 60 60 71 69 64 60 56 51 40 30 20 9
59 67 71 70 70 73 58 43 36 26 23 27 38 52 51 50 52 55 66 74 82 74 64 57 48 29 11 5 5 5 5 5
66 72 76 84 66 50 50 40 28 25 26 30 35 41 39 47 63 61 82 74 66 60 46 24 9 7 7 6 6 8 9 11

GFSFLT2_500_rhum_039.txt.gz
RH
4 5 6 8 9 10 10 10 10 10 10 13 15 18 20 23 26 28 28 28 28 28 30 30 32 30 29 31 33 33 33 36
6 7 8 9 9 9 9 9 10 14 18 19 20 22 22 23 23 25 26 28 30 27 26 24 25 26 27 28 30 33 36 38
6 8 8 8 7 7 8 10 18 23 22 17 17 18 20 24 27 31 32 35 35 34 35 35 31 27 27 28 30 30 31 33
8 8 7 7 7 9 13 20 22 20 19 19 20 24 25 24 27 29 35 36 34 32 31 31 32 33 32 32 33 36 36 33
6 6 6 7 10 14 18 17 20 22 18 18 20 21 27 31 33 34 34 34 34 31 34 37 36 37 37 38 37 34 31 27
6 8 10 12 17 19 18 24 26 22 34 40 53 60 59 51 44 33 32 37 36 34 39 40 39 34 29 29 30 32 27 20
10 12 15 18 21 24 29 33 36 86 80 66 58 51 49 38 38 38 39 41 41 40 40 36 31 27 27 26 27 28 26 24
17 19 21 22 28 31 37 66 76 61 60 53 41 34 31 37 45 44 42 39 38 37 35 33 31 28 29 30 32 33 32 31
12 13 17 25 54 86 94 69 61 62 46 47 54 53 51 51 48 45 42 39 38 37 35 33 33 32 31 30 30 29 28 27
12 30 37 66 84 90 97 97 81 44 48 48 49 54 55 55 52 49 47 45 44 46 46 47 45 42 42 40 39 37 36 36
42 72 90 95 97 98 95 60 56 48 45 51 54 51 51 54 55 54 56 63 61 54 43 29 20 16 13 11 12 12 11 10
67 92 98 97 97 96 78 45 46 45 50 54 48 53 58 59 60 63 57 41 29 19 14 15 14 12 11 11 12 13 12 12
99 99 100 89 78 61 46 46 56 60 48 49 58 64 66 66 64 38 27 21 19 17 18 18 18 16 13 12 12 12 12 13
70 55 47 54 64 63 59 51 46 45 49 61 71 75 76 72 46 35 26 24 20 18 16 15 14 13 13 13 12 14 18 20
64 50 41 43 48 54 53 52 52 56 67 75 77 74 58 44 35 29 28 25 22 21 22 22 20 21 21 21 17 15 15 17
75 68 64 64 63 72 67 61 65 79 91 94 88 82 72 50 38 38 39 38 33 29 27 28 29 26 25 24 22 19 16 14
90 90 100 100 100 95 79 77 93 100 100 93 58 39 36 36 36 36 30 25 28 32 35 33 29 26 22 18 15 14 13 12
95 99 100 96 84 84 93 98 97 74 55 46 41 39 33 22 19 21 26 31 33 32 28 22 16 12 10 10 12 14 16 24
100 100 98 86 94 97 85 59 52 49 45 38 27 19 17 18 20 23 26 29 28 23 15 11 9 9 9 10 11 16 24 32
99 85 82 84 58 51 46 41 38 28 21 19 18 16 17 17 20 27 30 26 17 13 10 9 8 8 11 14 15 18 20 21

GFSFLT2_500_rhum_042.txt.gz
RH
6 4 5 6 6 7 9 10 10 10 10 11 15 18 17 17 20 20 20 20 23 28 30 29 28 23 21 22 23 24 24 31
4 5 6 8 8 9 9 9 9 10 12 18 19 18 18 18 21 22 23 25 27 30 31 30 30 31 31 28 24 23 25 27
5 7 8 8 9 8 8 8 10 12 18 22 21 18 14 15 19 21 23 25 29 35 31 30 29 29 29 29 30 30 31 32
6 7 8 8 8 8 8 10 14 19 20 22 23 17 17 22 30 35 33 38 37 33 34 33 32 34 35 33 30 30 32 32
7 7 8 8 8 9 11 15 17 21 26 26 42 71 65 60 55 54 47 36 34 37 40 41 39 39 39 39 37 32 29 30
6 7 8 10 12 14 17 19 23 26 30 72 69 70 59 52 44 33 30 36 39 40 41 42 44 43 38 33 29 26 25 24
11 12 13 15 16 17 20 24 29 55 70 77 62 53 51 46 37 40 36 36 36 38 40 39 38 38 38 37 36 35 34 33
13 14 17 18 17 17 22 30 43 69 96 88 58 53 52 48 44 38 34 34 40 41 41 40 39 40 43 45 45 42 40 36
21 23 24 20 33 39 45 72 94 98 93 63 49 42 38 41 43 34 37 43 46 47 46 47 47 48 48 43 38 36 37 37
16 24 67 76 71 89 99 98 98 96 97 61 46 40 44 44 37 41 49 53 54 55 59 55 44 28 17 16 16 17 15 15
22 66 75 67 86 98 96 98 98 96 85 65 45 46 38 34 42 54 58 60 62 51 30 20 18 17 15 14 15 15 13 13
34 75 77 98 96 96 98 79 58 58 72 44 37 39 41 49 56 62 64 58 36 25 23 21 16 13 12 11 11 11 11 11
61 91 97 96 83 51 42 29 30 36 46 49 58 60 58 56 63 66 50 34 29 26 25 21 16 13 12 12 13 14 15 17
94 78 58 53 62 58 45 53 58 61 66 72 69 66 66 70 68 50 39 34 31 29 21 16 15 16 15 13 12 14 14 19
61 62 64 79 83 66 59 57 60 68 72 72 73 77 78 63 64 63 51 42 41 37 28 21 19 18 18 18 16 15 15 18
62 90 98 71 68 74 72 71 72 78 81 84 88 82 78 73 60 49 45 37 25 19 17 16 16 17 19 20 22 20 19 17
70 85 82 96 91 95 92 78 88 90 94 77 66 58 48 42 35 24 17 15 14 14 16 18 21 25 27 30 31 30 26 26
100 100 100 100 100 90 89 100 100 79 61 56 47 37 26 19 17 16 16 17 18 19 22 26 30 34 37 33 26 19 13 10
93 84 90 95 93 93 98 86 57 46 40 30 23 20 18 17 17 18 19 20 22 27 32 37 38 35 25 16 11 9 9 10
67 84 98 100 74 61 51 42 40 32 24 24 23 22 21 20 21 22 25 30 38 41 40 36 27 16 10 10 12 19 35 59